Volver al catálogo

FREGAT DEB

LostSSO
NORAD 45914·DEBRIS·🇷🇺 Russia

Lanzado Jul 18, 2011 desde Baikonur Cosmodrome

Loading…

Próximos Pases (próximas 24 horas)

TLE

ObsoletoSource: Space-Track

Época: Oct 5, 2020, 04:03 UTC

1 45914U 11037EK  20279.16936208  .00000113  00000-0  19571-4 0  9992
2 45914  97.8595 330.1170 0197108 284.0763  73.8610 14.75283521  8202

Sigue FREGAT DEB en tiempo real con AllMySat

Download on the App Store